RS3S

Last updated on Sun Aug 28 2022 00:02:06 GMT+0000 (Coordinated Universal Time)

1 53308U 98067TT 22239.46331805 .00028580 00000+0 46466-3 0 9998 2 53308 51.6426 343.1700 0001385 140.9051 219.2039 15.52452760 5783
UTC large
Height (km)
Speed (km/s)
/
Latitude / Longitude
Inclination (degrees)
Orbital Period (minutes)
Azimuth
Elevation
Range (km)
Doppler Factor

Next 0 passes for location: London (51.5072 / 0.1276)

Sorry there are no passes over London.